Location: Bergfeld
(52.0500°N, 11.7833°E)
Time: 07:32:58
(UTC+00:00)

H-2A R/B - Pass Details

Date: 17 February 2020
Orbit: 530 x 652 km, 98.3° (Epoch: 30 March)

Event Time Altitude Azimuth Distance (km) Brightness Sun altitude
Rises 03:38:39 0° 19° (NNE) 2,884 6.4 -26.1°
Reaches altitude 10° 03:40:53 10° 25° (NNE) 1,994 5.6 -25.8°
Maximum altitude 03:45:06 48° 100° (E) 831 3.5 -25.1°
Enters shadow 03:48:24 16° 171° (S) 1,654 4.7 -24.6°
